Theta_e
296 296 296 296 295 295 294 294 293 293 292 292 292 291 291 291 290 290 290 289 289 289 289 289 288 288 287 287 286 286 285 284 284 283 283 283 282 282 281 281 281 281 281 280 280 280 280 279 280 279 278 278 278 277 277 276 276 276 276 276 276 276 276 276 276 276 277 277 277 277 277 277 276 276 276 277 277 277 277 277 277 277 277 277 277
296 296 296 295 295 295 294 294 293 293 292 292 292 291 291 291 290 290 290 289 289 289 289 289 288 288 287 287 286 285 285 284 284 283 283 282 281 281 281 281 281 281 280 280 280 279 279 279 279 279 278 277 277 277 276 276 275 275 275 275 275 275 275 275 275 276 276 276 276 276 276 276 276 276 276 277 277 277 277 277 277 277 277 277 277
297 296 295 295 295 295 294 294 293 293 292 292 292 291 291 291 290 290 289 289 289 289 289 288 288 287 287 286 286 285 285 284 283 283 282 282 281 281 281 281 281 281 280 280 280 279 279 278 278 278 277 277 276 276 275 275 275 275 275 275 275 275 275 275 275 275 275 275 276 276 276 276 276 276 277 277 277 277 277 277 277 277 277 277 277
296 295 295 295 295 294 293 293 293 293 292 292 292 291 291 290 290 290 289 289 288 288 288 288 287 287 286 286 285 285 284 284 283 283 282 281 281 281 281 281 281 280 280 280 280 279 278 278 278 277 277 276 276 275 275 274 274 274 274 274 274 274 274 274 274 275 275 275 275 275 276 276 276 277 277 277 277 277 277 277 277 277 277 277 277
296 295 295 294 294 294 293 293 293 292 292 292 291 291 290 290 289 289 289 288 288 288 287 287 287 286 286 285 285 284 284 283 283 282 281 281 281 281 281 281 280 280 280 279 279 279 278 278 277 277 276 275 275 275 274 274 274 274 274 274 274 274 274 274 274 275 275 275 275 276 276 276 277 277 277 277 277 277 277 277 277 277 278 278 278
296 295 295 294 293 293 293 293 292 292 292 292 291 291 290 289 289 289 288 288 287 287 287 287 286 286 285 285 284 284 283 283 282 282 281 281 281 281 280 280 280 279 279 279 279 278 278 277 277 276 275 275 274 274 274 274 274 274 274 274 274 274 274 275 275 275 275 275 276 276 276 277 277 277 277 277 277 277 278 278 278 278 278 278 278
296 295 295 294 293 293 292 293 292 292 292 291 291 290 289 289 288 288 288 287 287 287 286 286 286 285 285 284 284 284 283 282 282 281 281 281 280 280 279 279 279 279 279 279 278 278 277 277 276 275 275 274 274 274 274 274 274 274 274 274 275 275 275 275 276 276 276 276 276 276 277 277 277 277 277 278 278 278 278 278 278 278 278 278 278
296 295 294 293 293 293 293 293 292 292 291 291 290 289 289 288 288 287 287 286 286 286 286 286 285 284 284 284 283 283 283 282 281 281 280 280 279 279 279 279 279 278 278 278 277 277 276 276 276 275 275 275 274 274 274 274 274 274 275 275 276 276 276 276 276 276 276 276 277 277 277 277 277 278 278 278 278 278 278 278 278 279 279 278 278
296 295 294 293 293 293 293 292 292 291 291 290 289 289 288 288 287 286 286 286 286 286 285 285 284 283 283 283 282 282 282 281 281 280 280 279 279 279 279 279 279 278 277 277 276 276 276 276 276 275 275 275 275 275 275 275 276 276 276 277 277 277 276 277 277 277 277 277 277 277 277 278 278 278 278 278 278 279 279 279 279 279 279 279 279
296 294 294 294 294 293 292 292 291 290 290 289 289 288 287 287 286 286 285 285 285 284 284 284 283 283 282 282 281 281 281 280 280 280 280 279 279 279 279 278 278 277 277 276 276 276 276 276 276 276 276 276 276 276 277 277 278 278 278 278 278 278 278 278 278 278 278 278 278 278 278 278 278 279 279 279 279 279 279 279 279 279 279 279 279
295 294 294 294 293 292 292 291 290 290 289 289 288 287 286 286 285 285 285 284 284 283 283 283 282 282 282 281 281 280 280 280 280 279 279 279 279 279 279 278 278 277 276 276 276 276 276 276 276 276 276 276 276 277 277 277 278 278 278 278 278 278 278 278 278 278 278 278 278 279 279 279 279 279 279 279 279 279 279 279 279 279 279 279 279
295 294 294 293 292 292 291 290 290 289 288 288 287 286 286 285 284 284 283 283 283 282 282 282 281 281 281 280 279 279 279 279 279 279 278 278 279 279 279 278 277 277 276 276 276 276 276 276 276 276 276 276 276 276 276 276 276 277 277 277 277 278 278 278 278 278 278 279 279 279 279 279 279 279 279 278 278 278 278 278 278 278 279 279 279
294 294 293 293 292 291 291 290 289 288 288 287 286 285 285 284 283 283 282 282 282 281 281 281 280 280 280 279 279 279 279 279 279 278 278 278 279 278 278 278 277 277 277 277 276 276 276 276 276 276 276 276 276 275 275 275 275 275 276 276 276 276 277 277 278 278 278 278 278 278 278 278 278 278 278 278 278 278 278 278 279 279 279 279 279
293 293 292 292 291 291 290 289 288 287 287 286 285 284 284 283 282 282 282 281 281 280 280 280 280 279 279 279 278 278 278 279 278 278 278 279 279 278 277 277 277 277 277 277 276 276 277 276 276 276 275 275 275 275 275 275 275 275 275 276 276 276 276 277 277 277 277 277 278 277 277 278 278 278 278 278 278 278 278 278 279 279 279 279 279
292 292 292 291 291 290 289 288 287 286 286 285 284 283 283 282 281 281 281 281 280 280 280 279 279 279 279 278 278 277 278 278 277 278 279 279 280 279 278 278 277 277 277 277 277 277 276 276 275 275 274 274 274 274 275 275 275 276 276 276 276 277 277 277 277 277 277 277 277 277 278 278 278 278 278 278 278 278 279 279 279 279 279 279 279
292 291 291 291 290 290 289 288 286 285 285 284 283 282 282 281 281 281 280 280 280 279 279 279 278 278 278 278 277 277 277 277 277 279 279 280 280 280 278 278 277 277 277 277 276 276 276 275 274 274 274 274 274 275 275 276 276 276 277 277 277 277 277 277 277 277 277 278 278 278 278 277 277 278 278 278 278 278 278 278 277 277 278 278 278
291 291 290 290 289 289 288 287 286 285 284 283 282 282 281 281 280 280 280 279 278 278 278 278 278 278 277 277 276 276 276 277 278 279 279 279 279 279 278 277 277 277 277 276 276 275 275 274 274 274 274 274 274 275 276 277 277 277 277 277 277 277 277 277 277 277 277 277 277 276 276 277 277 277 277 277 276 276 276 275 275 275 276 276 277
290 290 289 289 288 287 287 286 285 284 283 282 282 281 281 280 279 279 279 278 278 278 277 277 277 277 277 276 276 276 276 277 278 279 279 279 279 278 277 277 277 276 276 275 275 274 274 274 274 274 274 274 275 276 276 277 277 277 277 277 277 277 277 277 276 276 275 275 275 275 275 275 275 274 273 273 273 273 273 274 274 275 275 276 276
289 289 289 288 288 287 286 285 285 284 283 282 282 281 280 279 279 278 278 278 277 277 276 276 276 276 276 276 276 276 276 277 278 278 278 279 279 277 277 277 276 275 275 275 274 274 273 274 274 275 275 275 276 276 277 277 277 276 277 277 277 277 276 276 275 275 275 275 275 274 273 272 271 270 270 271 271 272 272 273 273 274 275 276 277
288 288 288 288 287 287 286 285 284 283 282 281 281 280 279 278 278 277 277 277 277 276 275 275 275 275 275 275 275 275 276 276 277 277 278 279 279 277 276 276 275 275 275 274 274 273 273 274 275 275 275 276 276 276 276 276 276 277 277 277 276 276 275 275 275 275 275 274 273 271 270 270 269 270 270 271 271 272 272 272 273 274 276 276 277
288 288 288 287 287 286 285 285 284 283 282 281 280 279 279 278 277 276 276 276 276 275 275 274 274 274 274 274 274 275 276 276 277 277 278 278 278 277 276 275 275 274 274 274 273 273 274 275 274 274 275 275 275 275 276 276 277 277 276 276 275 275 275 275 275 274 273 271 270 269 269 269 269 270 270 271 271 272 272 272 273 274 275 275 275
288 287 287 287 286 286 285 284 283 282 281 281 280 279 278 277 277 276 276 275 275 274 274 273 273 273 273 273 273 274 275 276 276 276 277 278 278 278 276 275 275 274 274 273 274 274 275 275 274 274 274 274 274 275 276 276 276 275 275 274 274 275 275 274 273 272 270 269 268 268 269 269 270 270 270 271 271 272 272 272 272 273 273 273 273
289 287 287 286 285 285 284 283 282 281 281 280 279 278 277 276 276 275 275 274 274 273 273 273 272 272 272 272 272 273 274 274 274 276 277 277 278 278 277 275 275 274 274 274 275 275 275 274 273 273 273 274 275 275 275 275 274 273 273 273 274 274 273 272 270 269 268 268 268 268 269 269 270 270 270 271 271 272 272 272 272 272 272 272 273
289 288 287 286 285 284 283 282 281 281 280 279 278 277 276 275 275 274 274 274 273 272 272 272 272 271 271 271 271 272 273 273 273 275 276 277 278 278 277 276 275 275 275 275 275 275 274 273 273 273 274 274 274 273 273 273 272 272 272 273 272 271 270 269 268 267 267 267 268 268 269 269 270 270 271 271 271 271 272 272 272 272 272 272 273
288 288 287 285 284 283 282 281 281 280 280 279 278 276 275 274 274 273 273 273 273 272 272 271 271 271 271 271 270 271 271 272 273 274 275 276 277 277 277 276 276 276 276 275 275 274 274 273 273 274 273 273 272 271 271 271 271 270 271 271 270 268 267 267 267 267 267 268 268 269 269 269 270 270 271 271 271 271 271 272 272 272 272 272 272
288 287 286 285 284 282 281 280 279 279 279 278 277 276 275 274 274 273 273 273 273 273 272 271 271 271 271 271 271 271 271 272 273 274 274 275 276 276 276 276 276 276 276 275 274 274 273 273 273 272 271 271 270 269 269 270 270 270 269 268 267 267 266 266 266 267 267 268 268 269 269 269 270 270 270 271 271 271 272 272 272 272 272 271 272
287 286 285 284 283 281 280 279 278 277 277 277 276 276 275 274 274 273 273 273 273 273 272 271 271 271 271 271 271 271 271 271 272 273 274 274 275 275 276 276 276 275 274 274 273 272 272 271 271 271 270 270 269 269 269 269 269 269 268 267 266 266 266 266 267 267 268 268 268 268 269 269 269 270 270 271 271 271 272 272 272 271 271 271 271
286 285 284 283 281 280 279 278 277 276 276 275 275 275 274 274 274 274 273 274 273 273 272 271 271 272 272 272 272 271 271 271 272 272 273 273 273 274 274 275 274 274 273 272 272 271 271 271 271 270 270 270 270 270 270 269 268 267 266 266 266 266 266 266 267 267 267 268 268 268 269 269 269 270 270 271 271 271 271 271 271 271 271 271 271
286 284 283 281 279 278 278 277 276 276 275 275 275 275 274 274 274 274 274 274 274 274 273 272 272 273 272 272 272 271 271 271 271 272 272 272 273 273 273 273 273 272 272 272 271 271 271 271 270 270 269 269 269 269 268 267 266 266 266 266 265 265 265 266 266 267 267 267 268 268 269 269 270 270 271 271 271 271 271 271 271 271 271 271 271
284 282 281 279 278 277 276 276 275 275 275 274 274 274 274 273 273 274 274 273 274 274 274 273 273 273 273 273 273 273 273 272 272 272 272 272 272 273 273 273 272 272 272 272 272 271 271 270 269 269 269 268 267 266 265 265 265 265 265 265 265 265 265 266 266 267 267 267 268 268 269 269 270 271 271 271 271 271 271 271 271 271 271 271 271
283 282 280 279 278 277 276 275 275 274 274 274 273 273 272 272 273 273 273 273 274 274 274 274 273 273 273 273 273 273 273 273 272 272 273 273 274 274 274 274 274 273 272 272 272 271 270 269 269 268 267 266 265 264 264 264 264 264 264 264 264 264 265 266 266 266 267 267 268 268 269 270 270 271 271 271 271 271 271 271 271 271 270 270 271
283 282 281 279 278 276 275 274 274 273 273 273 272 272 271 271 272 273 273 273 274 275 275 274 274 274 274 273 273 273 273 273 273 274 274 275 275 275 274 274 274 273 272 271 270 269 268 268 268 268 266 265 264 264 264 263 263 263 263 263 263 264 265 265 266 266 267 267 268 269 269 270 270 271 271 271 271 271 271 271 270 270 270 270 270
283 283 282 280 277 275 274 273 273 272 272 272 271 271 271 271 271 272 273 274 274 275 275 275 275 274 273 273 273 273 273 274 275 275 275 276 275 275 274 274 273 272 271 270 269 268 268 268 268 267 265 265 265 265 264 263 263 262 263 263 263 264 265 265 265 266 266 267 268 269 270 270 270 271 271 271 271 271 270 270 270 270 270 270 270
283 283 283 281 278 275 274 273 272 272 272 271 271 271 271 271 272 272 273 274 275 275 276 276 276 275 274 274 274 274 275 275 276 276 276 275 274 274 273 273 271 270 270 269 268 268 268 268 267 266 265 265 265 264 264 263 262 262 262 263 263 264 264 265 265 266 266 268 269 269 270 270 270 270 270 270 270 270 270 270 270 270 270 270 270
282 282 282 281 278 276 274 273 272 272 271 271 271 271 271 272 272 273 273 274 275 276 276 276 276 275 275 275 275 276 276 276 276 275 275 274 274 273 272 270 269 268 268 268 268 268 268 267 267 266 265 265 265 264 263 263 263 262 262 262 263 263 264 264 265 266 267 268 269 270 270 270 270 270 270 270 270 270 270 270 270 270 270 270 270
282 282 281 280 278 276 275 273 272 272 271 271 271 271 271 272 272 273 274 274 275 275 275 275 275 275 275 275 276 276 276 276 275 275 274 274 273 272 270 269 268 267 267 268 268 267 267 267 266 266 266 266 265 264 263 263 263 263 262 262 262 262 263 264 265 266 267 268 269 269 270 270 270 270 270 270 270 270 270 270 270 270 270 270 270
281 281 281 280 278 276 274 273 272 272 272 271 271 271 272 272 273 273 274 274 274 275 274 274 275 275 274 275 276 276 276 275 275 274 273 272 271 270 269 269 268 267 267 267 267 267 267 266 266 266 266 265 265 264 264 264 263 263 262 262 262 262 263 264 265 267 268 268 269 270 270 270 270 270 270 269 269 269 269 270 270 270 270 270 270
280 280 281 280 278 275 274 273 272 271 271 271 271 271 272 272 273 273 274 274 274 274 274 274 274 274 274 274 275 276 275 274 273 272 271 270 269 269 269 269 268 268 267 267 267 267 267 266 266 266 266 265 265 264 264 264 264 263 262 262 262 263 263 264 266 267 268 268 269 270 270 271 270 270 269 269 269 269 269 269 269 270 270 270 270
278 279 280 280 278 275 274 272 271 271 271 271 271 271 272 272 273 273 274 273 273 273 273 273 273 273 273 274 275 275 273 271 269 268 268 268 268 268 268 268 268 267 267 266 266 266 266 266 266 266 265 265 265 265 264 264 263 263 263 262 262 263 264 265 265 267 268 269 269 270 270 271 270 270 269 269 269 269 269 269 269 269 269 269 269
277 278 278 278 277 275 273 272 271 271 271 271 271 271 272 272 273 273 273 272 272 272 273 272 272 272 272 273 274 273 271 268 267 266 266 267 267 267 267 267 267 267 266 266 266 266 266 266 266 266 265 265 265 265 264 264 264 263 263 262 262 263 263 265 266 267 268 269 269 270 271 271 270 269 269 268 268 269 269 269 269 269 269 269 269
278 278 278 277 276 275 273 272 271 271 271 271 271 271 272 272 272 273 272 272 272 272 271 271 271 271 271 272 272 271 269 267 266 266 266 267 267 267 267 267 266 266 266 266 266 266 266 266 266 266 266 265 265 265 264 264 264 263 263 263 263 263 264 265 266 267 268 269 270 270 270 271 270 269 268 268 268 268 269 269 269 269 269 269 269
278 278 277 276 275 274 272 271 271 271 271 271 271 271 271 272 272 271 271 270 270 270 270 270 269 269 270 271 271 270 268 267 266 266 266 266 267 266 266 266 266 266 266 266 266 266 266 266 266 266 265 265 265 265 265 265 264 264 264 264 263 263 264 265 266 267 268 269 270 270 270 270 270 269 268 268 268 268 268 269 269 269 269 269 269
278 278 277 275 274 273 272 271 271 271 271 271 271 271 271 271 271 270 270 269 269 269 269 268 267 268 270 271 271 269 268 267 266 266 266 266 266 266 265 265 265 265 266 265 265 265 266 266 266 266 265 265 265 265 265 265 264 264 264 264 264 264 264 265 266 267 268 269 270 270 271 270 269 268 267 267 267 268 268 268 269 269 269 269 269
278 277 276 274 273 273 272 271 271 271 270 270 270 270 270 270 269 269 269 268 268 268 267 266 266 267 270 270 269 267 266 266 266 266 266 266 265 265 265 265 265 265 265 265 265 265 265 265 265 265 265 265 265 265 265 265 265 265 265 264 264 264 265 265 266 267 268 269 270 271 270 270 268 267 267 267 267 268 268 268 269 269 269 269 269
277 276 274 273 272 272 271 271 270 270 270 270 269 269 269 269 268 268 268 267 267 266 265 265 266 267 268 268 267 266 265 265 265 265 265 265 265 265 265 265 265 265 265 264 264 265 265 265 265 265 265 265 265 265 265 265 265 265 265 265 264 264 265 265 266 267 268 269 270 271 270 269 268 267 267 267 267 267 268 268 268 268 269 269 269
275 274 273 272 271 271 270 270 269 269 269 268 268 268 268 268 267 267 266 266 265 264 264 264 265 266 266 265 265 265 264 264 265 265 265 265 264 265 265 265 265 264 264 264 264 264 264 265 265 265 265 265 265 265 265 265 265 265 265 266 265 265 266 266 267 268 269 270 271 271 270 268 267 267 266 266 267 267 268 268 268 268 268 269 269
273 272 271 271 270 269 269 269 268 268 268 268 267 267 267 266 266 265 265 264 264 264 264 264 264 264 264 264 264 264 264 264 264 264 264 264 264 264 264 264 264 264 264 264 264 264 264 264 265 265 265 265 265 265 265 265 265 265 266 266 266 266 267 267 268 268 269 271 271 270 269 268 267 266 266 266 266 267 267 268 268 268 268 268 269
271 271 270 269 269 268 268 267 267 267 267 267 266 266 266 265 264 264 263 263 263 263 263 263 263 263 263 263 263 263 264 264 264 264 264 264 264 264 264 264 263 263 263 263 264 264 264 264 264 264 264 265 265 265 265 265 265 265 266 266 266 267 267 268 268 269 270 271 271 270 268 267 267 266 266 266 266 267 267 268 268 268 268 268 268
269 269 268 268 268 267 267 266 266 266 266 266 265 265 264 263 263 263 262 262 262 262 262 262 262 262 262 262 263 263 264 264 264 264 264 264 264 264 263 263 263 263 263 263 263 263 264 264 264 264 264 264 264 264 264 264 265 265 265 266 266 267 268 268 269 270 271 271 270 269 268 267 266 266 266 266 266 267 267 267 268 268 268 268 268
268 268 267 267 266 266 266 266 266 265 265 265 264 263 263 262 262 262 261 261 261 261 261 261 262 262 262 262 263 263 263 263 264 264 264 264 263 263 263 263 263 264 263 263 263 263 264 264 264 264 264 264 264 264 264 264 265 265 265 266 266 267 268 268 269 270 271 271 270 269 268 267 266 266 266 266 266 266 267 267 268 268 268 268 268
266 266 266 265 265 265 265 265 265 264 264 264 263 263 262 262 261 261 261 261 261 261 261 261 261 261 262 262 263 263 263 263 263 263 263 263 263 263 263 263 263 264 263 263 263 263 263 263 263 264 264 264 264 264 264 264 265 265 265 266 266 267 268 269 269 270 271 271 270 268 267 266 266 265 266 266 266 266 267 267 267 267 268 268 268
Wind_Speed
42 43 44 44 43 43 43 43 42 41 40 40 41 42 42 42 42 41 41 41 42 42 43 44 44 44 44 43 43 41 39 38 36 35 33 31 29 27 25 23 21 20 18 17 17 16 16 16 16 16 16 16 18 18 18 18 19 19 19 20 21 20 21 21 15 21 38 39 35 36 32 33 38 31 32 39 36 33 37 38 37 40 42 42 42
44 45 44 43 43 44 43 41 40 40 40 40 41 42 42 43 43 42 42 42 43 43 44 44 44 44 44 44 43 41 40 39 38 36 34 32 30 28 25 24 22 21 20 19 18 16 16 17 17 16 16 17 18 18 19 18 18 20 20 19 22 21 20 23 20 18 31 40 39 40 37 32 37 37 34 39 42 39 41 43 41 41 43 42 43
44 44 41 42 43 43 41 40 40 40 41 42 43 43 43 43 43 43 43 43 43 43 43 44 43 43 43 43 43 42 41 40 38 37 35 33 31 29 26 24 22 22 21 19 18 17 17 17 17 17 17 18 19 18 18 19 19 20 21 19 21 22 20 22 25 21 27 40 42 41 41 36 35 38 39 43 46 45 46 47 45 43 43 42 44
40 38 39 41 41 40 40 40 40 41 43 44 45 44 43 42 43 43 43 42 42 43 43 43 43 43 43 43 43 42 41 40 39 37 35 33 31 29 26 24 23 22 20 19 17 17 17 18 18 17 17 18 19 19 18 19 20 19 20 20 20 22 22 21 25 26 26 35 42 42 41 42 42 40 40 46 49 46 47 50 48 47 46 45 46
38 37 39 39 38 39 40 41 41 43 44 45 45 44 43 42 43 43 43 42 42 42 42 42 43 43 44 44 43 42 41 40 39 37 35 33 30 28 25 24 22 21 20 18 17 18 18 18 18 17 18 19 19 19 19 19 20 19 19 21 20 21 22 22 24 29 29 32 40 46 44 43 47 46 41 43 49 47 46 50 51 49 47 48 48
37 37 38 37 37 39 40 41 43 45 46 45 44 43 42 42 43 43 43 43 42 43 43 44 44 44 44 44 43 42 41 40 38 37 35 32 30 27 25 23 22 20 19 18 18 18 18 18 19 18 19 20 19 19 19 19 20 20 20 21 21 21 23 25 26 29 32 33 36 43 45 42 43 46 41 38 44 47 45 48 52 48 42 45 48
36 37 37 37 38 39 41 44 46 46 46 45 42 42 42 42 43 43 43 43 43 43 44 44 44 44 44 43 42 41 40 39 37 36 34 33 30 27 25 23 22 21 20 19 19 18 19 18 19 19 19 20 20 19 20 20 21 21 21 21 21 21 23 25 27 27 29 30 31 32 37 40 41 44 44 40 42 47 43 39 43 45 41 42 46
35 37 36 37 38 41 43 45 45 44 43 41 40 40 41 42 42 42 42 42 43 44 45 44 44 42 42 42 41 40 39 38 37 36 34 32 30 27 25 24 23 21 20 19 19 18 19 19 19 20 20 20 21 20 21 22 21 22 22 22 22 23 23 23 23 23 24 27 30 29 31 37 38 40 44 40 35 39 38 32 34 42 43 44 49
35 35 35 37 40 42 42 42 41 40 39 39 39 40 41 41 41 41 42 43 43 43 43 43 43 42 41 41 40 40 39 38 38 37 35 32 29 27 25 24 23 21 20 19 19 19 19 19 19 18 19 18 19 19 20 20 21 21 21 20 21 22 24 24 21 21 21 22 23 23 25 28 29 30 34 32 29 34 39 38 38 42 42 42 50
35 35 36 40 41 40 38 38 37 37 37 38 39 39 40 40 40 40 41 42 42 42 42 42 42 42 41 40 39 39 39 38 37 36 34 32 29 27 25 24 22 22 21 20 19 19 18 18 17 16 16 16 17 18 20 20 21 22 21 20 21 21 23 24 22 22 22 21 21 21 21 24 28 30 33 36 37 40 42 40 39 42 40 36 41
34 34 37 39 37 35 35 35 35 36 37 37 38 38 39 39 40 40 40 40 40 40 41 41 41 41 41 40 40 38 38 38 36 34 32 30 28 27 26 25 24 23 22 20 19 18 17 16 15 14 14 16 17 18 19 20 20 22 22 22 22 24 24 24 25 25 24 24 26 25 23 27 35 37 38 40 40 39 40 41 39 38 34 24 23
32 34 36 35 32 33 35 35 35 35 36 37 38 38 39 39 39 39 39 39 39 39 40 40 40 39 39 39 39 38 38 38 36 34 33 30 29 28 28 27 26 24 22 20 19 17 15 15 14 13 14 14 16 18 18 19 19 20 21 22 22 24 26 27 28 29 27 25 27 28 27 30 36 38 37 38 38 38 40 42 40 36 33 26 22
32 34 34 32 32 34 35 34 35 36 36 37 37 37 38 39 39 39 39 38 38 38 39 39 38 38 38 38 38 38 38 38 37 35 33 31 30 30 29 27 25 23 22 20 19 17 16 14 12 13 15 14 15 18 19 19 20 20 21 22 23 24 26 29 31 32 33 32 32 34 34 33 36 40 40 39 39 39 37 38 39 36 33 33 34
31 31 30 30 32 33 33 34 34 35 35 36 36 37 38 39 38 38 38 38 38 38 38 38 38 39 39 39 38 39 39 38 37 34 32 30 29 28 27 25 23 22 21 19 18 16 14 12 12 13 15 15 16 17 17 19 20 21 21 23 25 27 27 29 29 29 33 36 37 41 42 40 40 42 43 41 40 39 36 35 38 36 37 42 47
27 27 27 29 31 32 33 34 34 34 34 35 36 37 37 37 37 37 38 39 40 40 39 39 39 39 39 39 38 37 36 36 33 31 29 28 26 25 24 23 22 21 19 17 16 15 13 13 13 13 14 16 16 16 16 19 20 21 24 25 27 28 26 26 27 29 34 37 38 41 41 40 40 40 41 42 41 41 40 41 43 43 43 46 48
23 24 26 29 32 34 35 34 34 34 35 35 36 36 37 37 38 38 38 38 38 38 39 39 40 40 39 38 36 34 34 33 30 28 27 26 25 24 23 22 21 19 17 16 16 15 15 14 13 13 15 16 16 15 16 18 20 22 25 26 26 27 28 30 31 32 33 34 35 37 39 41 42 42 43 44 43 44 45 47 50 47 39 34 34
21 23 26 28 30 32 34 34 34 34 35 36 37 37 37 38 38 38 38 37 36 38 38 38 39 39 38 37 35 33 32 30 27 26 26 25 25 25 24 22 20 19 18 17 16 15 14 13 13 14 16 16 15 15 15 18 21 22 24 26 28 30 32 31 28 26 28 31 35 38 39 41 41 41 43 42 42 44 43 42 44 39 29 22 18
18 19 20 21 23 26 29 31 33 34 36 38 38 37 37 37 38 39 39 38 37 38 38 36 37 38 38 37 36 34 33 30 28 28 27 25 24 25 24 21 19 19 18 17 15 13 12 11 12 14 16 15 15 15 16 18 20 22 24 27 29 29 27 25 23 26 31 33 34 35 35 37 38 41 43 42 40 40 37 37 39 34 27 22 16
14 15 16 17 19 22 25 27 29 30 33 34 34 34 35 34 35 36 37 36 36 36 36 35 35 35 36 36 34 33 33 31 29 29 28 23 22 24 23 21 20 19 18 16 14 12 10 11 12 14 15 15 15 16 16 17 20 23 25 26 27 27 27 27 29 33 35 32 29 33 38 41 41 42 42 41 38 36 35 37 39 34 29 27 22
13 14 16 16 18 21 24 26 27 27 28 27 27 29 30 30 32 33 33 33 33 33 34 34 34 33 34 34 33 33 34 33 30 28 26 24 22 23 24 23 21 20 18 16 14 11 10 11 11 12 13 14 15 16 16 17 20 24 25 25 27 29 31 31 31 32 32 32 35 40 44 44 42 40 40 39 37 35 34 34 34 32 30 29 26
13 13 14 15 17 20 23 26 26 26 27 26 26 27 28 29 30 32 31 31 31 32 32 32 32 32 32 33 33 33 35 36 33 27 25 25 23 22 24 24 22 20 18 14 12 10 10 10 9 10 11 13 14 15 17 19 21 24 25 25 27 29 31 31 31 30 32 36 41 43 42 41 39 38 37 38 37 35 33 31 30 32 32 31 30
14 13 13 14 16 19 22 24 25 26 26 27 28 28 28 29 31 32 31 30 30 31 30 30 29 29 30 31 32 32 33 35 34 29 26 25 24 22 23 23 21 19 17 14 12 11 9 8 8 9 10 12 14 17 19 21 22 23 24 24 25 27 29 30 32 33 35 37 38 38 38 37 37 37 37 37 36 32 30 31 32 33 36 37 36
14 13 13 13 15 18 21 23 24 25 25 27 29 28 28 30 31 31 31 30 29 28 28 29 28 27 27 28 29 31 31 32 33 31 26 25 24 22 21 21 19 17 16 13 12 10 9 8 9 9 11 13 16 18 19 21 21 21 22 23 24 25 27 30 32 34 35 35 34 33 34 34 35 37 39 36 33 31 32 35 37 38 39 40 41
14 13 13 13 14 17 19 21 24 25 26 27 28 27 28 29 29 30 31 30 28 27 26 27 26 25 25 26 27 29 30 30 31 31 28 25 24 23 21 19 18 17 15 13 11 10 9 10 10 10 11 14 16 18 19 20 20 20 21 22 23 25 27 29 31 32 32 32 30 30 33 34 34 35 36 35 35 37 40 41 41 41 41 42 44
15 15 14 14 16 17 19 22 25 27 28 30 31 30 31 30 29 29 30 29 27 25 24 26 26 25 25 25 26 29 30 30 29 28 26 24 23 22 22 20 18 17 14 12 11 10 8 8 8 9 11 14 16 18 20 21 20 20 21 21 22 24 26 28 30 30 29 29 29 31 34 35 34 34 35 37 39 41 42 41 41 41 42 43 45
17 17 16 17 18 19 21 23 25 28 30 33 34 34 35 34 32 31 30 29 28 26 26 28 27 26 28 30 30 31 31 31 29 27 25 24 23 22 21 19 18 16 13 11 11 9 7 6 7 9 12 15 16 17 18 18 19 20 20 21 22 24 26 28 29 28 27 28 30 32 34 35 36 36 37 38 38 38 39 39 38 37 37 39 40
20 20 20 20 21 22 24 25 26 28 30 32 33 33 34 35 33 31 31 30 28 26 29 32 31 31 33 34 32 32 32 32 31 29 28 27 26 24 22 20 19 16 13 13 12 10 8 7 8 11 13 15 16 15 16 17 19 20 21 22 23 24 25 26 27 27 28 29 31 33 35 36 36 36 37 36 36 37 37 37 36 35 36 36 33
23 23 23 22 23 25 27 28 28 29 31 33 33 33 34 35 35 35 37 38 34 30 33 37 38 38 38 36 33 31 33 35 35 33 33 33 30 28 26 24 22 19 15 13 11 9 8 7 9 11 13 13 14 14 15 17 18 20 21 23 24 25 25 26 26 27 28 30 31 33 34 35 34 35 36 35 35 37 37 36 35 35 35 32 26
25 24 23 22 23 25 26 28 29 29 29 31 32 33 33 35 35 35 36 38 37 35 37 40 41 39 38 38 37 35 33 38 40 37 35 35 33 31 28 25 22 17 13 11 10 9 8 8 9 10 10 11 12 14 16 18 19 21 22 24 24 25 26 26 26 28 29 29 30 31 32 34 34 34 34 34 35 36 37 35 34 33 33 29 24
24 23 22 22 23 24 25 26 27 26 25 25 26 26 27 28 29 27 28 31 33 32 33 37 41 40 37 38 40 39 38 41 40 35 32 31 29 27 25 22 18 14 12 12 12 10 8 8 8 7 7 9 11 13 15 17 20 22 24 25 25 25 25 25 26 28 29 28 29 30 31 32 32 33 33 34 35 36 35 34 33 31 29 26 22
22 22 22 24 26 26 25 24 24 24 23 22 22 21 20 21 23 22 23 25 26 25 25 29 34 37 37 37 36 33 33 35 34 31 29 28 25 22 21 19 17 15 15 15 13 9 8 7 6 4 5 8 9 12 14 16 18 20 22 24 25 25 25 26 27 28 29 29 29 29 29 30 31 33 33 34 36 35 34 33 32 29 28 26 22
24 24 24 26 26 25 24 24 23 23 22 22 22 21 18 16 16 17 19 20 21 21 22 25 28 31 33 35 33 28 27 30 32 30 28 26 24 22 20 18 18 17 15 14 12 9 8 6 4 3 5 7 9 12 14 15 17 19 21 22 24 25 25 28 29 29 29 29 29 29 30 31 32 34 35 35 34 33 32 30 29 28 27 26 23
28 28 27 25 23 24 24 24 24 24 25 24 23 23 21 17 15 15 17 19 20 19 20 23 26 27 28 31 31 29 30 32 32 29 26 25 24 22 20 19 17 16 15 13 11 10 8 5 3 3 4 7 10 12 14 15 17 19 20 21 23 26 28 30 30 30 29 28 28 30 33 35 35 35 35 35 33 32 31 30 29 27 26 23 21
32 32 29 26 24 25 26 26 26 26 26 25 25 24 23 22 19 17 17 17 17 18 18 21 24 25 25 27 27 28 30 31 29 27 26 25 23 22 21 20 17 14 14 13 11 10 8 5 3 3 5 7 9 11 14 16 17 19 21 22 25 28 30 30 29 29 29 29 29 32 35 37 37 36 35 35 33 30 29 29 27 25 23 21 20
32 32 32 29 27 27 27 27 27 26 26 26 26 25 24 23 22 21 20 18 17 17 18 21 23 24 25 26 26 27 28 28 27 26 25 24 23 24 24 22 18 14 13 12 10 9 6 4 3 3 5 7 9 11 13 16 18 19 22 24 26 28 30 30 29 29 28 29 31 34 36 37 37 36 35 33 31 28 26 27 27 25 24 24 22
30 29 29 29 28 28 27 28 28 28 27 27 26 25 24 23 22 22 22 21 20 19 19 22 24 24 25 26 27 26 26 25 25 24 23 23 24 25 25 23 19 16 14 12 10 8 5 3 3 3 5 7 9 11 13 15 18 20 22 24 26 28 30 30 30 29 29 31 34 36 37 36 36 37 35 32 31 30 27 27 28 27 26 25 22
27 27 27 27 28 27 26 27 27 27 27 25 24 24 23 23 23 23 22 22 22 21 22 25 27 26 26 26 27 26 26 24 23 21 21 21 22 22 23 22 20 17 14 12 9 7 5 3 2 3 5 7 9 11 13 15 18 20 23 24 26 29 30 29 29 29 31 33 36 37 37 37 38 38 35 31 31 31 28 28 29 28 28 27 24
29 29 29 28 28 27 25 25 25 25 24 24 24 24 24 23 24 24 23 23 24 24 24 26 27 27 27 29 29 29 28 26 24 22 22 22 22 20 20 19 18 16 14 11 9 6 4 2 1 3 5 7 9 10 13 15 18 20 22 25 27 28 29 28 28 29 30 33 35 36 36 37 38 38 36 33 32 30 28 29 29 28 28 27 23
30 30 31 30 28 27 26 24 23 24 23 23 24 25 24 24 24 24 24 24 25 25 25 25 25 27 30 32 33 33 30 27 26 25 23 22 22 21 19 19 17 15 13 10 8 5 3 1 1 3 5 6 8 10 12 15 18 20 22 24 26 27 28 28 28 29 31 32 34 35 35 36 38 39 38 35 32 31 30 31 30 29 27 26 23
29 28 29 29 27 26 25 24 24 24 24 24 24 25 25 25 25 25 25 25 25 25 26 26 25 28 32 35 37 36 32 28 27 27 25 23 22 21 19 18 16 14 12 9 7 4 2 1 1 3 5 6 8 10 12 15 17 19 22 24 25 26 27 27 28 30 33 34 34 35 36 37 39 40 38 35 34 34 33 32 32 30 28 27 27
29 27 27 27 26 25 24 23 24 25 25 25 25 25 25 25 26 25 25 25 25 25 25 25 26 30 35 36 38 38 34 30 29 28 26 24 23 21 19 17 15 13 11 8 6 4 1 1 2 3 5 6 8 10 12 14 17 19 21 23 24 25 27 27 29 32 34 34 35 36 36 37 39 39 37 37 37 36 34 32 32 31 29 29 29
28 26 25 24 24 24 23 23 24 25 25 25 25 25 25 25 26 25 25 25 25 24 24 24 26 30 33 33 33 34 33 31 30 28 26 24 22 19 17 16 13 11 10 7 5 3 1 1 2 3 5 6 8 10 12 14 16 19 21 23 25 26 27 29 31 33 33 34 36 36 36 38 40 41 40 40 39 37 34 32 32 31 30 29 29
29 27 24 23 24 24 24 23 23 24 24 24 24 25 26 26 25 26 26 26 26 26 25 25 26 29 30 29 28 30 31 29 28 27 25 23 22 19 17 15 13 10 9 7 4 2 1 2 2 3 5 6 8 10 12 14 16 18 20 23 25 26 28 31 33 33 34 36 37 36 35 39 42 42 41 41 39 36 35 33 32 31 30 29 29
28 26 23 22 23 23 23 23 23 22 23 23 23 25 26 26 25 26 26 27 27 26 26 26 28 30 29 27 27 28 28 27 27 26 25 23 22 19 16 15 12 10 8 6 4 2 2 3 3 4 4 5 7 9 11 12 14 17 19 22 24 26 29 32 33 34 37 39 37 34 36 41 43 42 41 40 39 36 34 33 32 31 30 28 27
25 23 21 21 21 20 20 22 22 22 23 23 23 23 25 25 25 26 26 26 26 25 25 27 29 29 27 27 28 28 26 26 26 25 24 23 21 18 16 14 12 10 9 6 4 3 3 3 4 5 5 5 6 8 10 11 12 14 16 19 22 25 28 31 33 35 38 39 35 33 37 42 42 41 41 40 39 36 34 34 33 32 30 29 27
23 22 21 20 20 20 20 21 22 23 23 23 22 22 23 24 25 26 27 27 26 26 26 27 28 27 26 27 28 28 27 26 26 25 23 22 20 18 16 14 12 11 9 7 5 4 3 3 4 5 6 6 7 8 9 11 13 13 15 18 21 24 27 31 34 36 38 36 32 34 39 41 41 41 41 40 39 37 35 35 34 32 31 30 28
22 22 22 21 21 20 20 21 22 22 22 22 22 22 23 23 24 25 25 26 27 27 27 28 28 27 27 28 29 28 28 27 26 25 23 21 19 17 15 14 12 10 8 6 5 3 2 3 4 5 6 7 9 9 10 12 14 14 15 18 21 24 28 32 34 37 37 34 31 34 39 40 40 41 41 39 38 37 36 35 34 33 32 31 29
21 20 21 21 21 21 21 22 23 22 21 22 22 22 23 23 23 24 24 25 26 27 28 27 27 28 28 28 29 29 29 27 25 24 22 20 18 17 15 13 12 10 8 6 4 3 2 2 3 5 5 7 9 10 11 13 15 16 17 19 21 24 29 32 34 37 36 32 31 36 40 40 39 40 40 39 38 37 36 35 34 34 33 31 30
19 20 20 20 20 21 21 22 22 22 22 23 23 22 23 24 24 24 25 25 26 27 28 28 28 28 29 29 29 29 28 27 25 23 21 19 18 16 14 13 11 9 7 6 4 2 1 1 3 4 5 6 8 10 11 14 16 18 19 20 22 26 29 31 33 36 34 31 32 37 40 39 39 40 39 38 38 37 36 36 35 35 34 32 30
19 20 21 20 20 21 21 22 22 22 23 24 24 23 23 24 24 25 26 27 27 27 29 29 29 29 30 31 30 29 28 26 25 23 20 19 17 15 13 12 10 8 6 5 3 2 1 1 3 4 5 7 8 10 12 14 16 19 21 22 23 26 29 30 32 34 32 31 33 38 39 39 40 40 39 38 38 37 37 36 36 35 33 32 31
20 20 20 21 21 21 22 22 22 22 23 24 25 24 24 25 26 26 28 29 30 30 29 29 29 30 30 31 31 29 27 26 23 21 19 18 16 14 12 10 8 6 5 3 3 2 2 2 4 5 6 8 9 11 13 14 15 19 22 23 24 25 27 29 32 33 31 30 33 37 38 38 39 39 39 38 38 38 37 36 36 35 32 31 32
Wind_Direction
217 218 218 218 219 220 221 221 220 220 219 218 219 219 219 218 219 218 217 217 216 215 215 215 215 213 212 211 211 210 209 209 209 209 210 211 213 214 214 213 216 219 221 223 225 229 234 239 247 251 256 260 263 267 268 268 267 263 259 258 256 254 254 255 259 278 284 285 285 289 293 298 297 297 300 303 304 305 303 301 299 297 296 294 291
218 219 218 217 219 220 220 219 218 218 218 218 219 219 218 218 218 217 216 217 216 215 214 214 214 213 211 210 209 209 209 209 208 208 209 211 212 213 213 213 215 218 220 223 225 230 235 241 248 252 255 259 261 264 266 265 263 260 257 255 255 255 251 256 260 272 285 288 290 293 296 297 297 300 305 305 305 306 304 301 299 296 294 292 290
221 220 218 217 218 219 218 217 217 216 216 217 218 219 219 218 216 215 215 215 214 214 215 214 213 211 210 209 208 208 208 208 208 208 209 211 212 212 212 213 215 218 221 224 226 230 235 241 248 251 254 257 259 262 263 262 259 256 257 254 255 258 252 254 263 267 281 288 291 295 298 298 297 300 306 306 305 306 304 302 300 296 293 291 289
223 221 219 218 217 216 216 216 215 215 216 217 218 218 217 216 215 215 214 213 212 212 213 213 212 210 209 208 208 207 207 207 208 209 211 213 213 212 212 214 216 219 223 225 226 230 235 241 246 250 253 254 258 261 260 259 257 254 256 256 253 258 258 255 261 266 275 285 289 291 295 299 299 299 305 307 304 304 303 302 299 296 294 292 290
221 221 220 219 216 214 214 213 214 215 216 217 218 217 215 214 214 213 211 211 210 209 209 210 210 209 208 208 207 207 207 207 207 209 211 212 213 214 213 214 217 219 222 225 227 232 236 241 246 249 251 252 255 259 258 257 257 254 254 257 255 257 261 260 260 265 268 273 282 289 292 296 298 298 303 305 302 301 301 300 297 295 294 295 293
220 220 219 217 215 214 212 212 213 215 216 217 216 215 213 211 211 210 209 208 207 207 207 208 209 209 208 208 208 207 207 207 208 209 211 211 212 212 212 214 217 219 221 224 227 232 236 241 247 248 249 253 254 256 258 257 257 256 255 257 260 259 261 263 262 262 263 263 273 284 289 293 295 297 301 302 299 298 299 298 297 294 293 295 294
220 219 217 215 214 213 212 213 214 215 215 215 214 212 211 210 209 209 208 206 205 205 206 206 207 208 208 208 208 207 207 207 209 210 211 211 209 208 210 212 215 217 220 224 227 232 238 241 246 249 250 254 256 255 258 259 257 259 259 258 261 260 257 259 259 256 257 262 269 275 282 288 291 292 295 297 295 293 293 295 296 297 297 296 294
218 217 215 214 214 215 214 214 215 214 214 213 211 210 209 208 208 207 205 204 204 205 205 205 205 206 207 207 207 207 208 208 208 209 209 209 207 207 209 210 213 216 218 224 228 232 239 243 247 252 254 257 261 260 260 261 259 259 261 260 260 257 252 251 253 254 255 260 266 268 274 283 286 287 290 292 290 289 291 292 291 294 297 298 296
217 216 213 214 216 216 215 214 213 212 211 209 208 208 207 206 205 204 204 203 204 205 204 204 204 203 205 206 206 207 208 208 208 208 207 207 206 206 208 209 211 214 216 222 229 233 239 245 250 256 260 262 263 261 257 256 257 259 261 263 262 257 255 253 252 254 254 254 259 265 270 275 279 282 286 288 286 288 294 294 290 291 293 293 293
217 214 212 216 217 215 214 212 210 209 207 207 206 205 204 204 202 202 203 203 202 202 202 202 203 203 203 204 205 206 206 207 208 209 208 207 206 205 205 207 209 213 216 219 227 234 240 247 254 258 259 258 255 254 255 256 258 261 263 266 268 265 264 265 262 259 261 263 266 269 271 274 277 280 283 286 289 291 293 293 291 292 292 289 288
216 214 215 218 217 213 211 209 208 207 205 205 204 203 202 201 200 201 200 200 201 200 200 201 202 203 203 202 203 203 204 206 206 207 208 208 207 205 203 206 208 210 215 218 225 234 240 245 252 254 252 252 252 254 257 260 261 265 266 267 269 270 271 272 273 270 267 269 272 273 273 276 280 281 281 284 288 288 289 289 288 289 290 288 287
215 215 218 218 213 209 208 206 204 204 203 203 202 200 199 198 198 198 198 197 198 198 199 200 200 201 202 201 202 202 203 205 205 205 206 206 206 205 203 204 205 207 212 218 223 229 233 235 239 244 247 250 255 258 260 262 264 266 269 270 270 271 272 273 275 276 274 273 275 275 273 277 281 281 281 283 286 286 286 285 283 282 282 279 276
215 216 217 214 210 207 205 202 201 201 201 201 199 197 197 196 196 196 196 195 196 196 198 199 199 200 201 200 201 202 204 205 205 204 204 204 204 203 201 201 204 207 211 216 221 222 225 225 226 237 247 250 255 259 261 266 270 271 272 274 274 274 274 273 273 274 277 278 279 278 276 277 278 279 280 282 283 284 283 281 279 278 276 272 271
215 215 215 211 208 206 203 201 200 200 198 197 196 195 195 195 195 195 194 193 194 195 196 198 199 200 201 201 202 203 205 205 204 202 201 201 200 200 201 202 204 208 211 214 219 218 216 219 226 239 251 255 256 260 265 270 273 275 275 276 276 277 277 276 275 274 274 275 275 275 277 277 276 278 281 283 282 281 279 277 277 276 273 273 274
216 215 212 209 207 204 202 200 199 197 194 193 193 194 194 194 193 193 193 193 195 196 197 198 199 200 201 202 201 202 205 204 201 200 198 195 194 197 202 204 203 207 213 215 216 215 215 225 236 245 252 255 257 261 267 272 274 276 278 277 277 278 277 275 276 275 274 272 270 272 277 280 281 283 285 287 285 282 281 281 281 281 281 282 281
219 215 211 210 207 204 200 198 195 193 191 190 191 193 194 193 193 192 192 193 195 196 197 198 199 199 199 200 199 200 204 202 197 196 195 191 190 195 200 203 202 206 210 211 213 219 227 235 241 247 251 255 261 264 267 273 277 278 280 280 281 281 279 278 280 279 277 276 276 278 282 284 286 287 287 288 288 288 292 292 289 289 288 286 284
224 219 217 214 210 206 201 196 192 190 189 189 192 194 194 193 193 191 190 191 192 195 197 198 199 198 197 198 198 199 201 198 191 191 193 191 191 195 198 199 201 205 208 212 220 227 233 240 242 247 254 259 265 269 271 276 280 282 284 285 284 282 281 283 283 280 279 282 282 283 285 284 287 289 288 289 291 292 295 293 288 287 285 278 279
235 229 226 223 216 210 204 198 193 190 190 192 193 194 194 193 192 191 190 190 192 194 196 196 197 198 198 197 198 199 198 192 188 192 195 193 193 196 197 197 199 206 211 217 225 231 235 242 245 248 255 262 266 272 277 280 284 286 286 286 284 283 285 289 290 287 288 288 285 284 286 287 289 291 290 290 291 290 287 282 280 281 279 273 274
250 243 237 233 224 216 209 204 200 196 195 196 195 194 193 192 191 191 191 191 192 193 194 193 194 196 198 198 198 199 197 190 188 194 195 191 195 199 198 197 200 207 213 216 222 232 239 245 249 250 256 265 272 277 280 282 285 286 286 287 288 289 292 295 295 294 293 292 289 289 293 294 294 294 293 291 291 289 283 279 278 276 271 269 269
264 250 242 237 228 219 212 208 206 203 200 199 197 195 193 191 189 188 189 190 191 191 192 192 192 193 195 197 197 198 197 191 188 193 193 189 195 201 200 200 203 205 208 213 220 231 242 248 252 257 263 270 276 282 284 284 286 288 291 293 291 292 296 297 297 297 296 296 297 298 299 299 298 298 297 295 295 294 288 282 279 276 275 278 280
278 260 248 240 230 221 215 211 209 206 203 199 196 195 194 192 189 187 187 188 188 188 189 190 191 191 193 195 195 197 198 194 190 190 190 188 192 200 203 204 204 204 206 212 222 229 239 250 257 263 271 278 283 287 288 289 292 294 294 293 291 294 300 302 300 300 300 300 301 301 300 300 300 300 299 298 297 297 294 287 282 281 282 284 286
293 277 258 243 231 221 216 212 209 206 203 198 193 192 192 192 190 187 187 188 186 185 186 187 188 189 191 193 194 195 196 196 193 189 188 188 190 197 206 206 204 206 207 210 217 223 232 247 260 269 278 285 289 291 294 297 298 297 294 294 296 300 304 304 303 303 303 301 300 298 298 300 302 303 303 302 300 299 297 293 288 286 284 281 280
298 283 266 249 235 223 214 211 208 205 202 198 193 190 189 189 188 187 187 186 184 183 184 184 184 185 188 190 193 194 193 194 194 190 186 187 188 193 202 203 200 204 208 208 211 219 230 244 260 275 284 288 292 296 300 301 299 297 297 300 304 307 306 304 304 303 302 300 298 296 298 302 304 305 305 304 302 301 299 297 294 291 288 284 280
289 276 265 250 239 227 216 211 208 204 201 197 192 189 188 187 186 187 187 185 184 184 183 183 182 182 185 188 191 193 192 191 192 190 186 185 187 190 195 196 195 199 207 211 214 221 233 248 266 282 286 290 298 300 299 298 299 301 304 308 310 310 307 305 305 303 301 299 298 298 301 304 305 305 306 305 303 302 300 297 295 293 291 290 286
273 266 258 246 237 228 218 212 208 205 202 198 194 191 188 186 186 187 188 187 187 186 184 184 184 183 184 185 188 192 192 187 187 189 185 183 185 189 191 193 194 197 203 210 217 225 235 250 267 280 286 294 299 299 297 300 305 307 309 312 312 310 309 307 305 302 297 296 298 299 301 304 304 303 304 303 302 301 300 297 296 295 295 294 291
260 254 245 239 233 223 216 211 207 206 203 200 199 197 192 189 188 188 189 190 190 190 187 186 186 186 184 184 184 187 188 186 184 185 184 183 185 186 189 192 192 193 198 204 210 220 230 241 254 269 285 293 295 295 298 304 310 311 313 316 315 313 312 307 301 297 294 295 299 299 300 304 305 303 304 303 300 299 299 298 297 297 297 297 295
253 244 235 230 224 215 211 209 205 204 203 201 202 201 197 194 190 188 190 191 192 193 191 187 185 184 183 183 182 182 184 184 183 182 182 183 184 184 186 187 186 186 193 200 205 215 225 236 254 269 281 286 286 292 303 310 315 318 320 322 319 315 310 303 296 294 294 295 298 299 300 304 306 305 305 303 299 298 299 298 296 296 298 298 295
253 245 237 227 218 212 210 207 204 204 204 203 202 201 200 198 196 196 196 194 192 193 191 188 187 186 182 180 178 177 181 186 186 184 183 183 183 183 183 183 183 185 190 197 204 216 227 241 261 271 278 284 288 302 316 321 322 323 323 323 321 315 310 304 298 296 298 298 299 300 303 306 306 305 304 301 298 299 300 298 295 295 297 297 293
255 248 239 226 218 213 210 208 208 207 207 207 208 207 205 203 204 206 206 202 199 196 193 191 192 189 184 181 178 176 182 190 192 190 187 185 183 183 182 181 182 182 183 190 198 206 220 244 265 273 284 299 310 319 325 326 326 327 326 324 320 314 309 305 302 301 301 300 299 301 304 306 305 305 304 301 299 300 301 299 296 295 297 295 289
255 246 237 227 220 215 210 211 212 210 210 211 212 214 216 214 213 215 213 210 208 204 200 198 196 190 187 187 186 185 190 193 191 188 185 182 181 181 178 175 173 169 170 182 194 204 223 246 264 277 296 314 320 320 322 325 326 326 325 321 316 311 308 305 303 302 301 301 301 302 304 304 305 306 305 302 301 302 302 299 297 296 295 293 288
254 246 237 228 223 217 211 210 209 209 211 212 211 212 216 217 220 222 217 210 208 207 206 203 197 192 190 189 187 190 194 190 182 177 176 176 176 175 171 167 164 164 173 185 192 202 218 231 247 283 308 314 313 313 318 324 322 317 315 314 311 310 308 306 305 304 303 303 304 304 305 305 305 306 305 303 303 304 304 302 300 297 294 291 288
255 251 244 235 227 219 212 208 205 203 204 206 205 204 203 205 212 218 216 210 205 203 202 197 193 193 193 189 184 185 185 178 172 171 173 175 175 171 165 161 160 165 178 188 190 193 202 214 237 284 307 309 311 316 321 321 316 311 309 307 307 309 309 308 307 306 305 306 306 307 309 309 307 306 305 305 305 305 304 304 301 298 296 292 287
257 254 250 240 228 218 210 206 202 200 199 198 198 197 196 194 194 197 201 203 204 205 202 195 188 186 187 186 183 179 173 168 168 170 172 172 170 164 158 156 158 171 186 187 179 181 190 202 234 273 302 311 316 322 323 317 312 310 308 304 305 308 309 308 308 307 306 308 309 310 311 310 308 307 307 307 307 306 305 304 301 299 298 294 290
261 258 253 241 227 217 211 207 203 201 199 197 195 195 195 194 189 183 182 188 195 199 197 190 184 178 175 176 174 168 165 165 167 169 169 168 164 157 152 149 152 171 190 186 175 179 188 194 226 272 305 314 318 322 319 314 313 312 309 308 309 309 309 308 309 309 310 312 312 312 311 309 308 308 309 309 308 306 304 303 302 299 297 295 293
264 259 254 244 230 220 215 209 204 201 198 196 195 195 194 192 188 183 181 181 181 182 179 177 176 173 169 166 163 160 161 163 164 166 166 163 158 153 150 150 155 168 179 178 177 184 189 195 231 281 310 319 322 320 314 314 316 315 313 314 312 309 308 309 311 313 314 315 314 312 310 307 307 308 309 308 306 305 303 302 301 299 296 295 292
266 260 255 245 232 223 218 211 205 202 199 196 195 193 190 188 185 183 183 181 176 170 165 163 164 163 161 160 159 159 161 162 162 164 163 159 158 160 161 163 168 172 172 174 181 187 191 209 253 303 321 322 322 320 316 319 321 319 318 315 309 305 307 310 314 316 315 314 313 311 309 307 308 310 311 308 305 304 301 300 300 298 296 294 290
266 259 253 244 234 225 219 213 208 204 200 194 190 188 187 187 184 181 180 178 173 167 161 157 156 156 158 161 162 161 160 160 159 158 156 156 163 173 177 175 175 175 173 177 185 188 190 216 268 315 324 321 323 324 325 327 326 323 321 315 307 306 309 312 314 315 313 312 312 310 309 309 310 312 313 310 307 305 301 301 302 301 298 296 292
269 261 254 245 234 223 216 211 206 200 195 190 187 185 184 184 182 180 178 175 170 166 163 161 160 158 159 161 162 159 157 154 152 153 157 163 170 177 179 176 175 175 175 179 186 187 186 208 290 324 326 325 329 332 332 332 330 325 320 314 310 311 314 315 315 314 312 310 309 309 310 310 312 314 315 311 307 305 303 303 305 304 302 301 297
268 262 257 248 233 219 211 205 197 192 190 187 186 185 183 180 180 179 177 173 170 168 166 165 164 162 160 159 159 158 155 153 154 156 161 168 172 175 175 174 173 174 176 180 183 182 172 149 349 338 334 334 336 338 336 333 331 327 320 314 312 315 317 317 315 314 311 309 308 310 311 311 313 316 317 312 308 307 306 306 306 305 303 303 299
261 258 253 244 228 214 207 200 192 189 189 186 185 184 182 181 180 178 174 171 170 169 167 165 164 163 162 161 162 161 159 158 160 162 163 164 167 171 174 174 173 174 176 178 177 173 156 84 9 343 344 346 343 341 339 335 331 327 321 316 314 315 317 316 314 312 311 310 310 311 313 314 316 319 317 314 311 310 308 307 306 304 302 301 300
257 252 247 237 221 208 201 197 193 191 188 185 185 184 182 181 179 175 172 171 170 168 166 163 163 164 165 165 165 165 164 162 163 165 165 165 168 171 173 175 175 174 175 175 172 169 150 48 4 345 350 353 346 342 340 337 332 326 322 321 319 318 317 317 315 312 311 311 312 314 314 317 320 320 317 315 314 312 309 307 306 305 304 303 301
254 249 242 229 212 202 197 195 194 191 186 185 185 183 181 179 176 172 170 169 167 165 162 160 162 165 166 165 165 167 166 165 165 165 165 167 171 173 173 174 175 175 176 177 174 171 176 352 350 347 352 353 348 343 341 337 332 327 325 325 324 321 319 318 315 313 312 313 315 316 317 320 322 321 318 317 316 313 311 310 308 307 307 306 304
249 243 234 219 205 200 198 193 190 186 184 184 184 180 177 174 171 168 166 165 165 165 162 159 161 165 164 161 163 167 167 165 164 165 165 168 171 173 174 174 174 176 179 182 179 185 241 309 337 346 349 351 349 345 341 337 332 329 327 327 326 323 321 318 314 313 314 316 317 317 320 324 324 323 320 318 317 314 313 312 311 310 309 308 308
244 235 224 210 200 197 194 188 185 183 181 179 176 173 171 169 166 165 165 164 165 166 165 162 162 163 161 160 163 167 167 164 164 165 167 169 171 172 172 173 174 175 178 182 188 207 257 300 320 329 339 348 347 345 342 339 333 330 329 328 326 323 319 316 314 314 317 318 318 320 325 326 325 323 321 319 318 316 315 314 314 314 313 312 312
238 221 207 196 189 186 183 180 178 176 172 169 167 166 166 165 163 163 164 163 163 163 162 162 163 162 160 159 163 166 166 165 165 167 168 169 170 170 170 171 173 174 177 182 192 212 254 296 312 320 331 340 342 343 345 343 339 336 335 332 326 321 318 317 316 317 319 319 320 324 328 328 325 323 321 320 319 317 315 316 316 316 315 316 314
221 203 190 183 178 174 172 172 170 167 165 163 161 161 162 162 163 163 163 162 161 159 158 160 161 159 157 157 161 164 165 165 166 167 168 168 169 168 168 169 171 172 176 182 194 212 250 289 307 319 327 333 336 339 344 349 348 346 344 340 333 327 324 322 321 321 322 322 324 329 330 328 325 324 322 321 320 318 316 317 318 318 318 317 314
200 187 179 174 168 164 162 162 160 159 160 159 158 158 158 158 159 159 159 158 157 156 156 156 156 155 155 157 160 161 163 164 166 167 167 167 167 166 167 167 169 171 175 181 191 210 243 279 307 320 325 329 332 334 342 350 353 352 350 346 341 335 332 330 327 325 324 325 328 333 332 329 326 325 324 323 322 321 319 319 321 321 320 319 316
177 170 164 160 157 154 153 154 154 154 154 154 154 154 153 152 152 152 153 153 153 153 152 152 152 153 155 157 159 160 161 163 165 166 166 166 166 166 167 168 169 171 174 179 188 206 233 281 320 329 327 328 332 337 343 350 355 356 353 348 344 341 340 338 333 329 328 330 334 336 335 331 328 327 326 325 324 323 322 322 323 324 324 322 319
154 151 148 148 148 148 149 151 152 152 151 150 149 148 147 147 147 147 149 151 152 152 150 150 151 153 155 156 157 159 160 162 164 165 166 166 167 168 169 170 170 172 174 176 186 206 230 305 336 339 336 336 339 342 346 351 356 356 353 349 347 345 343 339 335 333 333 336 340 340 338 334 331 330 328 327 326 325 324 324 326 327 327 326 325
135 137 137 138 139 141 144 146 146 146 147 147 145 144 144 144 145 146 149 150 149 149 150 152 154 155 156 155 156 158 160 161 164 165 165 166 168 170 172 172 171 172 174 179 193 219 247 331 346 344 344 345 345 347 350 353 355 356 355 353 348 344 340 337 336 338 339 342 344 343 340 337 335 333 332 331 330 329 327 327 329 330 330 329 330
121 124 126 129 131 135 138 140 141 143 146 147 146 146 146 146 146 148 150 150 149 150 152 155 156 156 156 156 157 158 159 161 163 164 165 168 171 172 172 172 171 172 180 197 222 246 277 323 340 344 347 349 350 351 352 354 355 357 359 355 345 338 336 338 339 340 342 345 346 346 344 341 338 336 334 334 333 332 330 330 332 333 333 333 333